Tracking 28790 objects as of 19-Apr-2024
HD Live streaming from Space Station
objects crossing your sky now

BLOCK DM-SL R/B

Track BLOCK DM-SL R/B now!
10-day predictions


NORAD ID: 32730
Int'l Code: 2008-013B
Perigee: 290.0 km
Apogee: 20,415.6 km
Inclination: 0.5 °
Period: 358.7 minutes
Semi major axis: 16723 km
RCS: 20.4628 m2 (large)
Launch date: March 19, 2008
Source: Sea Launch (SEAL)
Launch site: SEA LAUNCH (SEAL)

Note: This is a ROCKET BODY
Your satellite tracking list
Your tracking list is empty




NASA's NSSDC Master Catalog

Two Line Element Set (TLE):
1 32730U 08013B   24109.59857736  .00004976  00000-0  10178-2 0  9998
2 32730   0.5258 319.8141 6017071 342.0835  13.2730  4.01422879171665
Source of the keplerian elements: AFSPC